QPF
0.03 0.02 0.02 0.01 0.02 0.01 0.01 0.01 0.01 0.01 0.01 0.01 0.01 0.02 0.01 0.00 0.00 0.01 0.03 0.04 0.04 0.04 0.03 0.04 0.04 0.04 0.04 0.04 0.05 0.05 0.04 0.03 0.02 0.02 0.04 0.12 0.20 0.23 0.25 0.25 0.24 0.21 0.18
0.08 0.03 0.03 0.02 0.02 0.01 0.01 0.02 0.01 0.01 0.02 0.02 0.01 0.02 0.01 0.01 0.01 0.02 0.02 0.02 0.02 0.02 0.03 0.04 0.04 0.04 0.04 0.04 0.04 0.04 0.04 0.03 0.02 0.02 0.03 0.09 0.20 0.25 0.17 0.14 0.16 0.18 0.20
0.08 0.05 0.03 0.02 0.02 0.01 0.01 0.01 0.01 0.01 0.01 0.01 0.01 0.01 0.01 0.02 0.02 0.02 0.01 0.01 0.01 0.02 0.04 0.04 0.05 0.07 0.08 0.07 0.06 0.06 0.06 0.05 0.05 0.05 0.04 0.05 0.12 0.20 0.17 0.13 0.12 0.12 0.12
0.07 0.07 0.06 0.04 0.02 0.02 0.01 0.02 0.02 0.01 0.01 0.01 0.01 0.01 0.01 0.01 0.01 0.01 0.01 0.00 0.00 0.01 0.02 0.03 0.08 0.13 0.17 0.15 0.12 0.09 0.07 0.06 0.06 0.06 0.05 0.06 0.10 0.15 0.17 0.14 0.12 0.12 0.10
0.03 0.05 0.05 0.03 0.02 0.02 0.01 0.01 0.01 0.01 0.01 0.02 0.01 0.01 0.01 0.01 0.01 0.01 0.01 0.00 0.00 0.00 0.00 0.01 0.03 0.05 0.07 0.08 0.07 0.05 0.04 0.04 0.04 0.05 0.04 0.04 0.10 0.17 0.19 0.14 0.11 0.10 0.08
0.02 0.02 0.03 0.02 0.02 0.02 0.01 0.02 0.02 0.01 0.01 0.00 0.00 0.00 0.01 0.01 0.00 0.01 0.02 0.02 0.02 0.01 0.01 0.01 0.01 0.02 0.03 0.04 0.04 0.04 0.04 0.04 0.04 0.04 0.05 0.07 0.15 0.17 0.11 0.08 0.07 0.07 0.07
0.03 0.01 0.01 0.01 0.01 0.01 0.01 0.01 0.02 0.02 0.01 0.00 0.01 0.00 0.00 0.01 0.01 0.01 0.02 0.02 0.03 0.03 0.03 0.03 0.03 0.02 0.01 0.02 0.04 0.04 0.04 0.04 0.04 0.04 0.06 0.08 0.12 0.08 0.05 0.06 0.04 0.04 0.05
0.03 0.01 0.01 0.00 0.00 0.00 0.01 0.01 0.01 0.01 0.02 0.02 0.01 0.01 0.00 0.00 0.01 0.02 0.02 0.01 0.02 0.03 0.03 0.04 0.04 0.03 0.02 0.02 0.03 0.03 0.03 0.03 0.03 0.03 0.05 0.07 0.06 0.05 0.05 0.05 0.04 0.04 0.04
0.01 0.01 0.01 0.00 0.00 0.00 0.00 0.00 0.01 0.01 0.01 0.02 0.02 0.01 0.00 0.00 0.00 0.01 0.02 0.01 0.01 0.01 0.02 0.03 0.03 0.03 0.02 0.03 0.03 0.02 0.03 0.02 0.03 0.03 0.03 0.05 0.06 0.06 0.06 0.05 0.04 0.04 0.03
0.00 0.00 0.01 0.01 0.01 0.00 0.00 0.00 0.00 0.01 0.01 0.01 0.02 0.01 0.01 0.01 0.01 0.00 0.00 0.00 0.01 0.01 0.01 0.02 0.03 0.03 0.02 0.02 0.02 0.02 0.02 0.02 0.02 0.03 0.02 0.03 0.06 0.08 0.06 0.05 0.05 0.03 0.03
0.00 0.00 0.01 0.01 0.01 0.00 0.00 0.00 0.00 0.00 0.01 0.01 0.02 0.02 0.02 0.01 0.01 0.01 0.01 0.00 0.00 0.00 0.01 0.01 0.02 0.02 0.02 0.02 0.02 0.02 0.02 0.02 0.02 0.02 0.02 0.03 0.06 0.08 0.08 0.07 0.05 0.04 0.03
0.00 0.01 0.00 0.00 0.00 0.00 0.00 0.00 0.00 0.00 0.00 0.01 0.01 0.02 0.02 0.02 0.01 0.01 0.01 0.01 0.01 0.01 0.01 0.01 0.02 0.02 0.01 0.01 0.01 0.01 0.01 0.02 0.02 0.02 0.01 0.02 0.04 0.06 0.07 0.08 0.07 0.05 0.04
0.00 0.00 0.01 0.00 0.00 0.00 0.00 0.00 0.00 0.00 0.00 0.00 0.01 0.01 0.02 0.01 0.01 0.01 0.01 0.02 0.02 0.01 0.01 0.01 0.01 0.02 0.01 0.01 0.01 0.01 0.01 0.01 0.02 0.01 0.01 0.01 0.02 0.03 0.04 0.07 0.08 0.07 0.07
0.01 0.01 0.01 0.01 0.00 0.00 0.00 0.00 0.00 0.00 0.00 0.00 0.00 0.01 0.01 0.02 0.01 0.01 0.01 0.01 0.01 0.01 0.01 0.01 0.01 0.01 0.01 0.01 0.00 0.01 0.01 0.01 0.01 0.01 0.01 0.01 0.01 0.02 0.03 0.05 0.07 0.07 0.08
0.03 0.03 0.03 0.03 0.02 0.01 0.01 0.00 0.00 0.00 0.00 0.00 0.00 0.00 0.01 0.01 0.01 0.02 0.01 0.01 0.01 0.01 0.01 0.01 0.01 0.01 0.02 0.01 0.00 0.01 0.00 0.00 0.01 0.01 0.01 0.01 0.01 0.02 0.02 0.04 0.06 0.06 0.06
0.04 0.03 0.03 0.02 0.02 0.01 0.02 0.02 0.01 0.00 0.00 0.00 0.00 0.00 0.00 0.00 0.01 0.01 0.01 0.01 0.01 0.01 0.01 0.00 0.01 0.01 0.03 0.02 0.01 0.01 0.01 0.01 0.01 0.02 0.02 0.02 0.01 0.02 0.02 0.04 0.04 0.06 0.06
0.03 0.03 0.02 0.02 0.02 0.02 0.02 0.02 0.01 0.00 0.00 0.00 0.00 0.00 0.00 0.00 0.00 0.01 0.00 0.01 0.01 0.01 0.01 0.00 0.00 0.01 0.02 0.02 0.01 0.01 0.01 0.01 0.01 0.02 0.02 0.02 0.02 0.02 0.03 0.05 0.05 0.05 0.06
0.03 0.03 0.03 0.02 0.02 0.03 0.03 0.03 0.02 0.01 0.00 0.00 0.00 0.00 0.00 0.00 0.00 0.00 0.00 0.00 0.01 0.01 0.01 0.00 0.00 0.01 0.02 0.02 0.02 0.01 0.01 0.01 0.01 0.02 0.02 0.02 0.02 0.02 0.02 0.03 0.04 0.04 0.04
0.03 0.03 0.03 0.03 0.03 0.03 0.03 0.03 0.02 0.02 0.01 0.00 0.00 0.00 0.00 0.00 0.00 0.00 0.00 0.00 0.01 0.01 0.02 0.01 0.01 0.01 0.02 0.03 0.02 0.01 0.01 0.01 0.01 0.03 0.04 0.02 0.02 0.02 0.02 0.02 0.02 0.03 0.03
0.03 0.04 0.04 0.03 0.03 0.03 0.02 0.02 0.02 0.02 0.01 0.01 0.01 0.00 0.01 0.00 0.00 0.01 0.01 0.01 0.01 0.01 0.02 0.01 0.01 0.01 0.01 0.02 0.03 0.02 0.02 0.01 0.01 0.02 0.03 0.02 0.02 0.02 0.02 0.02 0.01 0.02 0.03
0.03 0.03 0.04 0.03 0.03 0.03 0.03 0.03 0.03 0.03 0.02 0.01 0.01 0.00 0.01 0.01 0.01 0.01 0.01 0.01 0.01 0.01 0.01 0.01 0.01 0.01 0.01 0.03 0.03 0.03 0.02 0.02 0.02 0.02 0.02 0.02 0.02 0.01 0.01 0.02 0.02 0.02 0.02
0.02 0.03 0.03 0.03 0.02 0.03 0.04 0.04 0.04 0.04 0.04 0.02 0.01 0.01 0.01 0.01 0.01 0.01 0.01 0.02 0.01 0.01 0.01 0.01 0.01 0.01 0.02 0.03 0.04 0.03 0.03 0.03 0.02 0.02 0.03 0.02 0.02 0.01 0.01 0.02 0.03 0.03 0.03
0.02 0.03 0.03 0.03 0.02 0.03 0.04 0.06 0.05 0.04 0.05 0.04 0.02 0.01 0.01 0.01 0.01 0.01 0.01 0.01 0.01 0.01 0.02 0.02 0.02 0.02 0.02 0.03 0.04 0.04 0.04 0.04 0.02 0.02 0.02 0.02 0.01 0.01 0.00 0.01 0.03 0.04 0.04
0.02 0.02 0.02 0.03 0.02 0.02 0.03 0.04 0.04 0.04 0.04 0.04 0.03 0.02 0.01 0.01 0.01 0.01 0.01 0.01 0.01 0.01 0.01 0.01 0.02 0.02 0.02 0.03 0.04 0.04 0.04 0.04 0.03 0.03 0.03 0.03 0.01 0.01 0.01 0.00 0.01 0.03 0.04
0.01 0.01 0.02 0.02 0.03 0.03 0.03 0.03 0.03 0.03 0.03 0.04 0.03 0.02 0.01 0.01 0.01 0.02 0.01 0.00 0.00 0.00 0.01 0.01 0.01 0.02 0.03 0.03 0.04 0.05 0.04 0.04 0.03 0.04 0.03 0.03 0.02 0.01 0.01 0.01 0.01 0.02 0.04
0.01 0.01 0.01 0.01 0.02 0.02 0.03 0.03 0.03 0.02 0.02 0.03 0.02 0.02 0.03 0.02 0.02 0.02 0.01 0.01 0.01 0.00 0.01 0.01 0.01 0.01 0.02 0.03 0.03 0.04 0.05 0.05 0.04 0.04 0.04 0.03 0.03 0.02 0.01 0.01 0.02 0.02 0.02
MSLP
1017.39 1017.67 1017.85 1017.98 1018.07 1018.19 1018.34 1018.57 1018.85 1019.16 1019.48 1019.78 1020.01 1020.18 1020.28 1020.31 1020.29 1020.24 1020.17 1020.10 1020.04 1019.98 1019.93 1019.89 1019.84 1019.78 1019.72 1019.62 1019.50 1019.34 1019.15 1018.92 1018.68 1018.44 1018.20 1017.98 1017.78 1017.58 1017.37 1017.14 1016.86 1016.55 1016.21
1017.37 1017.67 1017.90 1018.09 1018.26 1018.44 1018.67 1018.95 1019.28 1019.64 1019.99 1020.32 1020.59 1020.78 1020.89 1020.93 1020.91 1020.85 1020.76 1020.67 1020.59 1020.52 1020.46 1020.42 1020.38 1020.34 1020.28 1020.19 1020.06 1019.90 1019.69 1019.46 1019.21 1018.97 1018.74 1018.54 1018.37 1018.21 1018.04 1017.86 1017.64 1017.37 1017.08
1017.28 1017.61 1017.90 1018.16 1018.42 1018.69 1019.00 1019.35 1019.74 1020.15 1020.55 1020.91 1021.20 1021.42 1021.55 1021.59 1021.57 1021.49 1021.38 1021.25 1021.14 1021.03 1020.95 1020.90 1020.86 1020.82 1020.76 1020.68 1020.56 1020.40 1020.20 1019.97 1019.72 1019.48 1019.26 1019.07 1018.91 1018.77 1018.64 1018.49 1018.30 1018.09 1017.84
1017.17 1017.53 1017.87 1018.21 1018.55 1018.92 1019.32 1019.75 1020.20 1020.65 1021.09 1021.48 1021.80 1022.04 1022.18 1022.24 1022.21 1022.12 1021.99 1021.84 1021.69 1021.55 1021.44 1021.35 1021.30 1021.25 1021.20 1021.12 1021.02 1020.87 1020.68 1020.46 1020.23 1019.99 1019.77 1019.58 1019.42 1019.29 1019.16 1019.03 1018.87 1018.69 1018.48
1017.08 1017.45 1017.84 1018.25 1018.68 1019.14 1019.61 1020.10 1020.60 1021.10 1021.55 1021.97 1022.31 1022.57 1022.74 1022.83 1022.82 1022.74 1022.60 1022.43 1022.26 1022.09 1021.94 1021.82 1021.74 1021.67 1021.62 1021.55 1021.45 1021.32 1021.16 1020.96 1020.74 1020.51 1020.29 1020.09 1019.92 1019.77 1019.63 1019.50 1019.35 1019.20 1019.02
1017.01 1017.39 1017.82 1018.29 1018.79 1019.31 1019.85 1020.39 1020.91 1021.42 1021.89 1022.32 1022.69 1022.98 1023.19 1023.31 1023.35 1023.31 1023.20 1023.04 1022.85 1022.66 1022.49 1022.34 1022.22 1022.13 1022.05 1021.98 1021.89 1021.78 1021.63 1021.45 1021.25 1021.03 1020.81 1020.60 1020.41 1020.24 1020.08 1019.93 1019.78 1019.63 1019.48
1016.97 1017.36 1017.82 1018.33 1018.88 1019.45 1020.01 1020.57 1021.10 1021.60 1022.08 1022.51 1022.89 1023.22 1023.49 1023.68 1023.78 1023.81 1023.75 1023.64 1023.47 1023.28 1023.09 1022.91 1022.75 1022.62 1022.52 1022.43 1022.33 1022.23 1022.10 1021.94 1021.75 1021.55 1021.33 1021.11 1020.90 1020.70 1020.52 1020.35 1020.19 1020.04 1019.90
1016.95 1017.36 1017.84 1018.38 1018.95 1019.53 1020.10 1020.65 1021.17 1021.65 1022.10 1022.53 1022.93 1023.30 1023.63 1023.90 1024.10 1024.22 1024.25 1024.20 1024.08 1023.90 1023.70 1023.50 1023.31 1023.14 1023.00 1022.88 1022.77 1022.66 1022.54 1022.40 1022.23 1022.04 1021.83 1021.61 1021.39 1021.17 1020.97 1020.78 1020.60 1020.45 1020.31
1016.97 1017.38 1017.87 1018.42 1019.00 1019.58 1020.13 1020.65 1021.13 1021.58 1022.00 1022.42 1022.83 1023.24 1023.63 1023.99 1024.30 1024.52 1024.65 1024.68 1024.62 1024.48 1024.29 1024.07 1023.85 1023.64 1023.46 1023.31 1023.18 1023.06 1022.94 1022.81 1022.66 1022.49 1022.29 1022.08 1021.86 1021.63 1021.42 1021.22 1021.04 1020.88 1020.75
1016.99 1017.42 1017.92 1018.47 1019.04 1019.60 1020.12 1020.59 1021.03 1021.42 1021.81 1022.21 1022.63 1023.07 1023.52 1023.96 1024.36 1024.68 1024.91 1025.03 1025.03 1024.94 1024.77 1024.55 1024.31 1024.07 1023.86 1023.67 1023.51 1023.38 1023.26 1023.14 1023.01 1022.86 1022.69 1022.50 1022.29 1022.08 1021.86 1021.67 1021.49 1021.34 1021.21
1017.02 1017.46 1017.97 1018.51 1019.07 1019.60 1020.08 1020.51 1020.89 1021.24 1021.59 1021.97 1022.38 1022.83 1023.32 1023.82 1024.29 1024.70 1025.01 1025.21 1025.28 1025.24 1025.11 1024.90 1024.65 1024.40 1024.16 1023.95 1023.77 1023.63 1023.51 1023.40 1023.29 1023.17 1023.03 1022.87 1022.69 1022.50 1022.31 1022.12 1021.96 1021.82 1021.70
1017.03 1017.49 1018.00 1018.54 1019.08 1019.58 1020.03 1020.42 1020.76 1021.06 1021.38 1021.72 1022.12 1022.57 1023.08 1023.60 1024.12 1024.58 1024.96 1025.22 1025.35 1025.36 1025.26 1025.08 1024.85 1024.60 1024.36 1024.14 1023.96 1023.82 1023.71 1023.62 1023.53 1023.44 1023.33 1023.21 1023.07 1022.91 1022.75 1022.59 1022.44 1022.31 1022.20
1017.00 1017.47 1017.99 1018.53 1019.06 1019.54 1019.96 1020.32 1020.62 1020.90 1021.18 1021.50 1021.87 1022.31 1022.81 1023.34 1023.87 1024.36 1024.77 1025.07 1025.25 1025.31 1025.26 1025.12 1024.92 1024.70 1024.48 1024.28 1024.12 1023.99 1023.89 1023.82 1023.76 1023.71 1023.64 1023.56 1023.45 1023.33 1023.20 1023.07 1022.94 1022.83 1022.73
1016.90 1017.39 1017.92 1018.46 1018.98 1019.46 1019.86 1020.21 1020.50 1020.76 1021.02 1021.32 1021.67 1022.08 1022.56 1023.07 1023.58 1024.07 1024.48 1024.81 1025.03 1025.13 1025.13 1025.05 1024.91 1024.75 1024.57 1024.42 1024.28 1024.19 1024.12 1024.08 1024.05 1024.03 1023.99 1023.95 1023.89 1023.80 1023.70 1023.60 1023.49 1023.38 1023.29
1016.70 1017.22 1017.77 1018.31 1018.84 1019.31 1019.73 1020.07 1020.36 1020.62 1020.88 1021.17 1021.50 1021.89 1022.33 1022.81 1023.29 1023.76 1024.17 1024.50 1024.74 1024.90 1024.96 1024.95 1024.88 1024.79 1024.68 1024.59 1024.51 1024.45 1024.42 1024.42 1024.42 1024.43 1024.43 1024.43 1024.40 1024.35 1024.28 1024.19 1024.10 1024.00 1023.91
1016.42 1016.96 1017.52 1018.08 1018.62 1019.11 1019.54 1019.90 1020.22 1020.49 1020.76 1021.05 1021.37 1021.74 1022.15 1022.59 1023.03 1023.47 1023.86 1024.20 1024.47 1024.67 1024.79 1024.86 1024.88 1024.87 1024.84 1024.82 1024.81 1024.81 1024.82 1024.86 1024.90 1024.94 1024.98 1025.00 1025.01 1024.99 1024.94 1024.87 1024.79 1024.70 1024.61
1016.04 1016.61 1017.20 1017.78 1018.34 1018.85 1019.30 1019.70 1020.04 1020.35 1020.64 1020.94 1021.26 1021.61 1022.00 1022.40 1022.82 1023.23 1023.61 1023.95 1024.24 1024.48 1024.66 1024.81 1024.91 1024.99 1025.05 1025.11 1025.17 1025.23 1025.30 1025.37 1025.46 1025.54 1025.61 1025.67 1025.70 1025.71 1025.69 1025.64 1025.57 1025.48 1025.38
1015.61 1016.21 1016.83 1017.43 1018.02 1018.56 1019.04 1019.47 1019.85 1020.19 1020.51 1020.83 1021.16 1021.51 1021.87 1022.26 1022.65 1023.03 1023.40 1023.74 1024.06 1024.33 1024.58 1024.79 1024.97 1025.13 1025.28 1025.41 1025.53 1025.66 1025.78 1025.91 1026.03 1026.16 1026.28 1026.38 1026.45 1026.49 1026.50 1026.46 1026.40 1026.31 1026.22
1015.15 1015.79 1016.43 1017.07 1017.68 1018.25 1018.77 1019.23 1019.64 1020.02 1020.37 1020.71 1021.05 1021.40 1021.75 1022.13 1022.50 1022.87 1023.23 1023.58 1023.91 1024.21 1024.50 1024.77 1025.01 1025.24 1025.45 1025.65 1025.84 1026.02 1026.20 1026.38 1026.56 1026.74 1026.91 1027.06 1027.18 1027.26 1027.30 1027.29 1027.24 1027.16 1027.06
1014.70 1015.37 1016.04 1016.71 1017.35 1017.95 1018.49 1018.98 1019.43 1019.83 1020.20 1020.56 1020.91 1021.26 1021.62 1021.98 1022.34 1022.70 1023.06 1023.41 1023.75 1024.07 1024.39 1024.69 1024.98 1025.26 1025.52 1025.77 1026.01 1026.25 1026.49 1026.72 1026.96 1027.20 1027.43 1027.64 1027.82 1027.95 1028.03 1028.06 1028.04 1027.97 1027.87
1014.27 1014.97 1015.67 1016.37 1017.03 1017.65 1018.22 1018.73 1019.19 1019.61 1020.00 1020.37 1020.74 1021.09 1021.45 1021.81 1022.16 1022.52 1022.87 1023.21 1023.55 1023.89 1024.22 1024.54 1024.85 1025.15 1025.45 1025.73 1026.02 1026.30 1026.59 1026.89 1027.19 1027.50 1027.79 1028.07 1028.31 1028.51 1028.64 1028.71 1028.72 1028.67 1028.59
1013.87 1014.60 1015.33 1016.05 1016.73 1017.37 1017.95 1018.47 1018.94 1019.37 1019.77 1020.15 1020.52 1020.88 1021.24 1021.60 1021.95 1022.30 1022.64 1022.98 1023.31 1023.65 1023.97 1024.29 1024.61 1024.92 1025.23 1025.54 1025.85 1026.17 1026.51 1026.86 1027.22 1027.60 1027.96 1028.31 1028.62 1028.89 1029.08 1029.20 1029.25 1029.23 1029.17
1013.49 1014.24 1014.99 1015.73 1016.42 1017.06 1017.65 1018.18 1018.66 1019.10 1019.51 1019.90 1020.27 1020.64 1021.00 1021.36 1021.71 1022.05 1022.39 1022.72 1023.04 1023.36 1023.68 1023.99 1024.30 1024.60 1024.91 1025.23 1025.56 1025.91 1026.28 1026.67 1027.09 1027.52 1027.95 1028.37 1028.75 1029.07 1029.33 1029.50 1029.60 1029.62 1029.59
1013.11 1013.88 1014.65 1015.38 1016.08 1016.72 1017.31 1017.84 1018.33 1018.78 1019.20 1019.60 1019.99 1020.37 1020.74 1021.11 1021.46 1021.80 1022.14 1022.46 1022.77 1023.07 1023.37 1023.66 1023.96 1024.25 1024.55 1024.87 1025.20 1025.56 1025.95 1026.37 1026.83 1027.30 1027.78 1028.25 1028.69 1029.07 1029.38 1029.61 1029.76 1029.84 1029.85
1012.73 1013.51 1014.27 1015.00 1015.69 1016.33 1016.92 1017.45 1017.95 1018.41 1018.85 1019.28 1019.69 1020.09 1020.48 1020.86 1021.22 1021.57 1021.90 1022.22 1022.52 1022.81 1023.10 1023.38 1023.65 1023.94 1024.22 1024.53 1024.86 1025.22 1025.61 1026.04 1026.51 1027.01 1027.51 1028.01 1028.49 1028.91 1029.28 1029.56 1029.77 1029.91 1029.98
1012.33 1013.11 1013.86 1014.58 1015.26 1015.88 1016.46 1017.00 1017.51 1018.00 1018.47 1018.92 1019.37 1019.80 1020.22 1020.62 1021.00 1021.36 1021.70 1022.02 1022.32 1022.61 1022.88 1023.16 1023.42 1023.69 1023.97 1024.27 1024.58 1024.93 1025.31 1025.73 1026.19 1026.68 1027.19 1027.70 1028.19 1028.65 1029.05 1029.38 1029.65 1029.85 1030.00
Thickness
5720 5721 5720 5720 5721 5721 5721 5721 5720 5720 5719 5719 5718 5717 5716 5716 5716 5715 5715 5716 5716 5716 5717 5717 5717 5717 5718 5718 5719 5719 5720 5721 5722 5722 5723 5724 5724 5724 5725 5725 5726 5726 5727
5717 5717 5716 5716 5716 5716 5716 5716 5716 5715 5714 5714 5713 5712 5711 5710 5710 5710 5710 5710 5710 5711 5712 5712 5712 5712 5712 5713 5713 5714 5714 5715 5716 5717 5718 5719 5719 5720 5720 5720 5721 5721 5721
5713 5713 5712 5711 5711 5711 5711 5711 5710 5710 5709 5709 5707 5707 5706 5705 5705 5705 5704 5704 5704 5705 5706 5706 5707 5707 5707 5708 5708 5708 5709 5709 5710 5711 5712 5713 5714 5715 5715 5715 5716 5716 5716
5708 5707 5706 5705 5706 5706 5706 5705 5704 5703 5702 5702 5701 5701 5701 5700 5700 5699 5698 5698 5698 5699 5699 5700 5700 5701 5701 5702 5702 5703 5704 5704 5705 5706 5707 5708 5709 5710 5710 5710 5710 5710 5710
5703 5702 5701 5701 5701 5700 5700 5700 5698 5697 5696 5696 5696 5695 5695 5694 5694 5693 5692 5692 5692 5692 5693 5694 5694 5694 5695 5696 5697 5698 5699 5699 5700 5701 5702 5703 5703 5704 5705 5705 5705 5705 5705
5698 5697 5696 5695 5695 5694 5693 5693 5692 5691 5690 5690 5691 5689 5688 5688 5688 5687 5686 5686 5686 5686 5687 5687 5688 5688 5689 5690 5691 5692 5693 5694 5695 5695 5696 5697 5697 5698 5699 5699 5699 5699 5699
5692 5692 5690 5689 5689 5688 5687 5687 5686 5685 5684 5684 5682 5679 5680 5681 5680 5680 5680 5680 5680 5680 5680 5681 5681 5681 5682 5683 5684 5686 5687 5688 5689 5690 5690 5691 5691 5692 5693 5693 5693 5694 5694
5687 5686 5685 5683 5683 5682 5681 5681 5680 5678 5677 5678 5674 5670 5666 5668 5671 5673 5672 5673 5673 5674 5674 5674 5675 5675 5675 5676 5678 5679 5680 5682 5683 5684 5684 5685 5685 5686 5687 5688 5688 5688 5688
5682 5680 5679 5678 5677 5677 5675 5674 5674 5673 5670 5670 5670 5666 5659 5656 5659 5663 5664 5665 5666 5666 5667 5667 5668 5668 5669 5669 5671 5672 5673 5675 5676 5678 5678 5679 5680 5680 5681 5682 5682 5682 5683
5677 5676 5675 5674 5673 5672 5670 5670 5669 5668 5666 5664 5664 5663 5661 5658 5653 5652 5655 5657 5658 5659 5659 5660 5660 5661 5662 5663 5663 5665 5666 5668 5669 5671 5672 5673 5674 5675 5675 5676 5676 5677 5678
5671 5670 5670 5669 5668 5667 5666 5665 5664 5663 5661 5659 5657 5656 5654 5653 5651 5647 5645 5647 5649 5651 5652 5653 5653 5654 5655 5656 5657 5658 5659 5661 5662 5663 5665 5667 5668 5669 5670 5670 5671 5672 5673
5665 5665 5664 5663 5662 5661 5660 5659 5658 5657 5656 5654 5652 5650 5648 5646 5644 5642 5639 5639 5640 5643 5645 5646 5646 5647 5648 5649 5650 5651 5653 5653 5655 5656 5658 5660 5661 5662 5664 5664 5665 5666 5667
5658 5658 5658 5657 5656 5656 5655 5654 5652 5651 5650 5648 5646 5644 5643 5642 5640 5638 5636 5634 5634 5635 5637 5638 5639 5640 5641 5642 5643 5645 5646 5647 5648 5650 5651 5653 5654 5656 5657 5658 5659 5661 5662
5654 5654 5653 5651 5650 5649 5648 5647 5645 5644 5643 5642 5641 5638 5637 5636 5635 5634 5631 5628 5626 5626 5628 5629 5632 5633 5634 5635 5637 5638 5639 5641 5642 5643 5645 5646 5648 5649 5650 5651 5653 5654 5655
5650 5648 5647 5645 5644 5642 5641 5640 5638 5636 5635 5634 5633 5632 5630 5630 5629 5628 5626 5625 5621 5618 5619 5621 5623 5626 5627 5628 5630 5631 5632 5634 5636 5637 5638 5639 5641 5642 5643 5644 5646 5647 5648
5644 5642 5640 5639 5637 5636 5634 5632 5630 5629 5628 5627 5626 5624 5623 5622 5621 5620 5619 5618 5617 5615 5612 5614 5615 5617 5619 5621 5622 5624 5625 5627 5629 5630 5631 5633 5634 5635 5636 5637 5639 5640 5641
5637 5635 5633 5631 5630 5628 5627 5625 5623 5622 5620 5619 5618 5617 5615 5615 5613 5612 5611 5610 5609 5608 5606 5606 5608 5610 5611 5613 5615 5616 5618 5620 5621 5623 5624 5626 5627 5628 5629 5630 5631 5633 5634
5630 5628 5627 5624 5623 5621 5620 5618 5615 5614 5612 5610 5609 5608 5607 5607 5605 5604 5602 5602 5601 5601 5599 5598 5599 5601 5602 5604 5606 5608 5610 5612 5614 5615 5617 5618 5620 5621 5622 5623 5624 5626 5627
5622 5620 5619 5616 5614 5613 5611 5610 5608 5606 5604 5603 5601 5600 5599 5598 5596 5595 5594 5593 5593 5594 5592 5590 5590 5591 5593 5595 5596 5598 5601 5603 5605 5607 5608 5610 5611 5613 5614 5615 5616 5618 5620
5614 5612 5610 5608 5606 5604 5603 5601 5599 5597 5595 5594 5593 5592 5591 5590 5588 5587 5586 5585 5584 5583 5582 5581 5581 5581 5582 5584 5586 5587 5589 5593 5595 5598 5600 5601 5603 5604 5606 5607 5609 5610 5612
5607 5604 5601 5599 5596 5595 5594 5592 5590 5588 5586 5585 5584 5583 5582 5582 5581 5580 5579 5576 5575 5573 5572 5572 5571 5571 5572 5573 5575 5577 5579 5581 5584 5588 5590 5592 5594 5596 5597 5599 5600 5602 5605
5598 5596 5593 5590 5587 5587 5585 5584 5582 5579 5577 5576 5574 5573 5573 5572 5571 5571 5570 5569 5568 5566 5564 5563 5562 5562 5563 5565 5566 5569 5569 5570 5572 5577 5579 5582 5585 5586 5589 5591 5593 5595 5597
5590 5587 5584 5581 5579 5578 5577 5575 5573 5571 5569 5567 5566 5564 5564 5563 5562 5560 5560 5559 5558 5559 5559 5557 5556 5556 5557 5558 5559 5560 5561 5562 5563 5567 5570 5573 5576 5577 5580 5583 5585 5588 5589
5581 5578 5575 5573 5571 5571 5570 5568 5566 5564 5561 5559 5557 5556 5555 5554 5554 5552 5551 5549 5549 5549 5550 5550 5551 5551 5552 5552 5553 5554 5554 5554 5556 5559 5561 5563 5566 5568 5572 5574 5577 5579 5581
5573 5570 5568 5566 5564 5563 5563 5561 5559 5555 5553 5551 5550 5550 5549 5548 5548 5546 5544 5541 5540 5541 5541 5541 5542 5543 5544 5545 5545 5545 5544 5544 5546 5549 5551 5554 5557 5560 5563 5566 5569 5571 5573
5566 5564 5561 5559 5557 5556 5556 5554 5552 5548 5544 5543 5542 5542 5543 5542 5542 5539 5536 5534 5532 5532 5532 5533 5533 5533 5534 5535 5536 5537 5537 5536 5537 5539 5543 5545 5547 5549 5552 5557 5560 5562 5564